Weather History for Poplar Bluff, MO

Change the Weather History Date:

Tuesday, June 12, 2012

  Actual Average Record
Temperature  
Mean Temperature 76 °F -  
Max Temperature 88 °F 86 °F 102 °F (1925)
Min Temperature 64 °F 64 °F 49 °F (1980)
Cooling Degree Days 12    
Growing Degree Days 26 (Base 50)    
Moisture  
Dew Point 60 °F    
Average Humidity 63    
Maximum Humidity 93    
Minimum Humidity 29    
Precipitation  
Precipitation 0.00 in - - ()
Sea Level Pressure  
Sea Level Pressure 30.02 in    
Wind  
Wind Speed 4 mph (North)    
Max Wind Speed 12 mph    
Max Gust Speed -    
Visibility 10 miles    
Events      
Averages and records for this station are not official NWS values.
T = Trace of Precipitation, MM = Missing Value Source: NWS Daily Summary

Daily Weather History Graph

Daily Weather History Graph

Search for Another Location

Airport:

Trip Planner

Search our weather history database for the weather conditions in past years. The results will help you decide how hot, cold, wet, or windy it might be!

Date:

Astronomy

Jun. 12, 2012 Rise Set
Actual Time 5:41 AM CDT 8:20 PM CDT
Civil Twilight 5:11 AM CDT 8:51 PM CDT
Nautical Twilight 4:33 AM CDT 9:29 PM CDT
Astronomical Twilight 3:50 AM CDT 10:12 PM CDT
Moon 1:19 AM CDT (6/12) 2:17 PM CDT (6/12)
Length of Visible Light 15h 40m
Length of Day
14h 39m
Last Quarter, 38% of the Moon is Illuminated
Jun 12
Last Quarter
Jun 19
New
Jun 26
First Quarter
Jul 3
Full
Jul 10
Last Quarter

Hourly Weather History & Observations

Time (CDT) Temp. Heat Index Dew Point Humidity Pressure Visibility Wind Dir Wind Speed Gust Speed Precip Events Conditions
12:53 AM 69.1 °F - 66.0 °F 90% 29.96 in 10.0 mi Calm Calm - N/A   Clear
1:53 AM 68.0 °F - 64.9 °F 90% 29.97 in 10.0 mi Calm Calm - N/A   Clear
2:53 AM 66.9 °F - 64.9 °F 93% 29.98 in 10.0 mi Calm Calm - N/A   Clear
3:53 AM 66.9 °F - 64.0 °F 90% 29.98 in 10.0 mi NNW 3.5 mph - N/A   Clear
4:53 AM 68.0 °F - 64.9 °F 90% 29.99 in 10.0 mi NNW 5.8 mph - N/A   Partly Cloudy
5:53 AM 66.9 °F - 64.0 °F 90% 29.99 in 10.0 mi NNW 4.6 mph - N/A   Clear
6:53 AM 69.1 °F - 64.0 °F 84% 30.02 in 10.0 mi North 8.1 mph - N/A   Clear
7:53 AM 72.0 °F - 64.0 °F 76% 30.06 in 10.0 mi North 5.8 mph - N/A   Clear
8:53 AM 75.0 °F - 63.0 °F 66% 30.09 in 10.0 mi North 8.1 mph - N/A   Clear
9:53 AM 77.0 °F - 62.1 °F 60% 30.08 in 10.0 mi North 10.4 mph - N/A   Clear
10:53 AM 80.1 °F 80.6 °F 57.9 °F 47% 30.08 in 10.0 mi NNE 8.1 mph - N/A   Clear
12:53 PM 84.0 °F 83.8 °F 59.0 °F 43% 30.06 in 10.0 mi Calm Calm - N/A   Clear
1:53 PM 84.9 °F 84.4 °F 59.0 °F 41% 30.05 in 10.0 mi Calm Calm - N/A   Clear
2:53 PM 86.0 °F 85.0 °F 57.9 °F 38% 30.03 in 10.0 mi North 8.1 mph - N/A   Clear
3:53 PM 87.1 °F 84.9 °F 53.1 °F 31% 30.02 in 10.0 mi North 11.5 mph - N/A   Clear
4:53 PM 87.1 °F - 51.1 °F 29% 30.00 in 10.0 mi North 8.1 mph - N/A   Clear
5:53 PM 87.1 °F - 51.1 °F 29% 29.99 in 10.0 mi North 6.9 mph - N/A   Clear
6:53 PM 84.9 °F 83.2 °F 53.1 °F 33% 30.00 in 10.0 mi North 8.1 mph - N/A   Clear
7:53 PM 81.0 °F 80.8 °F 55.9 °F 42% 30.00 in 10.0 mi NNE 5.8 mph - N/A   Clear
8:53 PM 75.0 °F - 57.0 °F 53% 30.02 in 10.0 mi NNE 8.1 mph - N/A   Clear
9:53 PM 70.0 °F - 60.1 °F 71% 30.04 in 10.0 mi North 5.8 mph - N/A   Clear
10:53 PM 68.0 °F - 57.0 °F 68% 30.05 in 10.0 mi ENE 3.5 mph - N/A   Clear
11:53 PM 64.9 °F - 60.1 °F 84% 30.06 in 10.0 mi Calm Calm - N/A   Clear